User: anonymous   Login
Location: *
(45.9500°N, 9.0833°E)
Time: 17:35:22
(UTC+00:00)
Language:

Altair - Orbit

View from above orbital plane
View from above orbital plane
View from above satellite
View from above satellite

Ground track
Ground track

The orbit data is extracted from the following two-line orbital elements,

1 00050U 60009B   21168.68038519 -.00000104  00000-0 -17795-3 0  9997
2 00050  47.2332  67.7265 0114230 334.2089  25.3035 12.20116979714818
Epoch (UTC): 17 June 2021 16:19:45
Eccentricity: 0.0114230
inclination: 47.2332°
perigee height: 1501 km
apogee height: 1683 km
right ascension of ascending node: 67.7265°
argument of perigee: 334.2089°
revolutions per day: 12.20116979
mean anomaly at epoch: 25.3035°
orbit number at epoch: 71481

The dashed part of the orbit path shows where the satellite is in the earth's shadow,  

DLR